Torna al catalogo

COSMOS 2394

GLONASS

AttivoNavigazioneMEO
NORAD 27617·PAYLOAD·🇷🇺 Russia

Lanciato Dec 25, 2002 da Baikonur Cosmodrome

Loading…

Prossimi Passaggi (prossime 24 ore)

TLE

AggiornatoSource: Space-Track

Epoca: Sep 13, 2026, 08:18 UTC

1 27617U 02060A   26256.34638576 -.00000051  00000-0  00000-0 0  9991
2 27617  65.3725 312.6704 0002332 277.9087  82.1404  2.13102579184604

Traccia COSMOS 2394 in tempo reale con AllMySat

Download on the App Store